Chubbuck, ID

12:46 PM MDT on September 28, 2016 (GMT -0600)
Pocatello Regional

Weather History for KPIH - August, 2014

Change the Weather History Date:

Monday, August 18, 2014

  Actual Average Record
Temperature  
Mean Temperature 73 °F 69 °F  
Max Temperature 92 °F 87 °F 98 °F (1940)
Min Temperature 54 °F 51 °F 37 °F (1978)
Degree Days  
Heating Degree Days 0 1  
Month to date heating degree days 1 5  
Since 1 June heating degree days 113 156  
Since 1 July heating degree days 3 25  
Cooling Degree Days 8 5  
Month to date cooling degree days 100 102  
Year to date cooling degree days 367 325  
Since 1 June cooling degree days 367 320  
Growing Degree Days 22 (Base 50)    
Moisture  
Dew Point 45 °F    
Average Humidity 46    
Maximum Humidity 77    
Minimum Humidity 15    
Precipitation  
Precipitation 0.00 in 0.02 in 0.31 in (1965)
Month to date precipitation 1.41 0.33  
Year to date precipitation 8.01 7.79  
Snow  
Snow 0.00 in - - ()
Month to date snowfall 0.0  
Since 1 June snowfall 0.0  
Since 1 July snowfall 0.0  
Snow Depth 0.00 in    
Sea Level Pressure  
Sea Level Pressure 29.88 in    
Wind  
Wind Speed 6 mph (NNE)    
Max Wind Speed 28 mph    
Max Gust Speed 34 mph    
Visibility 10 miles    
Events      
T = Trace of Precipitation, MM = Missing Value Source: NWS Daily Summary

Daily Weather History Graph

Daily Weather History Graph

Search for Another Location

Airport or City:

Trip Planner

Search our weather history database for the weather conditions in past years. The results will help you decide how hot, cold, wet, or windy it might be!

Date:

Astronomy

Aug. 18, 2014 Rise Set
Actual Time 6:39 AM MDT 8:27 PM MDT
Civil Twilight 6:09 AM MDT 8:57 PM MDT
Nautical Twilight 5:32 AM MDT 9:34 PM MDT
Astronomical Twilight 4:52 AM MDT 10:14 PM MDT
Moon 12:47 AM MDT (8/18) 3:36 PM MDT (8/18)
Length of Visible Light 14h 48m
Length of Day
13h 48m
Last Quarter, 38% of the Moon is Illuminated
Aug 18
Last Quarter
Aug 25
New
Sep 2
First Quarter
Sep 8
Full
Sep 15
Last Quarter

Hourly Weather History & Observations

Time (MDT) Temp. Dew Point Humidity Pressure Visibility Wind Dir Wind Speed Gust Speed Precip Events Conditions
12:53 AM 61.0 °F 48.9 °F 64% 29.91 in 10.0 mi SSE 3.5 mph - N/A   Partly Cloudy
1:53 AM 57.9 °F 48.9 °F 72% 29.92 in 10.0 mi NNW 8.1 mph - N/A   Clear
2:53 AM 55.9 °F 46.9 °F 72% 29.93 in 10.0 mi SSE 10.4 mph - N/A   Clear
3:53 AM 57.9 °F 46.0 °F 65% 29.92 in 10.0 mi Calm Calm - N/A   Clear
4:53 AM 55.0 °F 46.9 °F 74% 29.93 in 10.0 mi WSW 5.8 mph - N/A   Clear
5:53 AM 55.9 °F 46.9 °F 72% 29.93 in 10.0 mi WSW 6.9 mph - N/A   Clear
6:53 AM 55.9 °F 48.0 °F 75% 29.94 in 10.0 mi Calm Calm - N/A   Scattered Clouds
7:53 AM 59.0 °F 48.0 °F 67% 29.95 in 10.0 mi East 6.9 mph - N/A   Scattered Clouds
8:53 AM 60.1 °F 51.1 °F 72% 29.95 in 10.0 mi North 10.4 mph - N/A   Scattered Clouds
9:53 AM 61.0 °F 51.1 °F 70% 29.97 in 10.0 mi South 8.1 mph - N/A   Scattered Clouds
10:53 AM 64.9 °F 50.0 °F 58% 29.95 in 10.0 mi ENE 5.8 mph - N/A   Scattered Clouds
11:53 AM 73.9 °F 48.9 °F 41% 29.92 in 10.0 mi Variable 3.5 mph - N/A   Scattered Clouds
12:53 PM 75.0 °F 50.0 °F 41% 29.91 in 10.0 mi Variable 4.6 mph - N/A   Partly Cloudy
1:53 PM 82.9 °F 39.0 °F 21% 29.87 in 10.0 mi ENE 4.6 mph - N/A   Scattered Clouds
2:53 PM 88.0 °F 36.0 °F 16% 29.86 in 10.0 mi NW 6.9 mph - N/A   Scattered Clouds
3:53 PM 89.1 °F 37.0 °F 16% 29.82 in 10.0 mi SSW 5.8 mph - N/A   Scattered Clouds
4:53 PM 90.0 °F 36.0 °F 15% 29.81 in 10.0 mi WNW 8.1 mph - N/A   Scattered Clouds
5:53 PM 90.0 °F 36.0 °F 15% 29.79 in 10.0 mi WSW 5.8 mph - N/A   Scattered Clouds
6:53 PM 87.1 °F 37.0 °F 17% 29.78 in 10.0 mi Calm Calm - N/A   Mostly Cloudy
7:53 PM 80.1 °F 44.1 °F 28% 29.80 in 10.0 mi NNE 16.1 mph 21.9 mph N/A   Mostly Cloudy
8:09 PM 77.0 °F 42.8 °F 29% 29.94 in 10.0 mi NE 18.4 mph 26.5 mph N/A   Clear
8:53 PM 75.0 °F 41.0 °F 29% 29.83 in 10.0 mi NE 15.0 mph 19.6 mph N/A   Scattered Clouds
9:53 PM 71.6 °F 42.8 °F 35% 29.94 in 10.0 mi ENE 8.1 mph - N/A   Clear
10:53 PM 64.9 °F 44.1 °F 47% 29.82 in 10.0 mi NNE 5.8 mph - N/A   Clear
11:53 PM 62.1 °F 46.0 °F 56% 29.79 in 10.0 mi Calm Calm - N/A   Clear